Visibility
14.7 15.0 15.0 15.0 15.0 15.0 15.0 15.0 14.9 12.2 13.8 15.0 15.0 12.3 15.0 15.0 15.0 15.0 15.0 15.0 0.3 0.2 15.0 15.0 15.0 15.0 15.0 5.7 6.4 15.0 10.8 3.5 0.2 0.1 0.7 14.8 15.0 15.0 15.0 15.0 15.0 15.0 15.0 15.0 15.0 15.0 15.0 15.0 15.0 15.0 15.0 15.0 15.0 15.0
15.0 15.0 15.0 15.0 15.0 15.0 15.0 15.0 15.0 13.5 11.9 15.0 9.6 15.0 14.9 15.0 15.0 11.1 15.0 15.0 14.8 0.0 6.9 15.0 15.0 15.0 15.0 15.0 15.0 15.0 13.6 0.1 0.0 0.1 0.1 0.3 15.0 15.0 15.0 15.0 15.0 3.8 15.0 15.0 15.0 15.0 15.0 15.0 15.0 15.0 15.0 15.0 15.0 15.0
15.0 15.0 15.0 15.0 15.0 15.0 15.0 15.0 15.0 15.0 15.0 10.2 11.3 13.7 15.0 11.5 14.0 15.0 15.0 15.0 0.7 0.3 13.4 10.5 15.0 15.0 15.0 15.0 15.0 15.0 14.4 12.8 0.1 15.0 1.3 0.1 0.1 2.6 15.0 15.0 15.0 15.0 15.0 15.0 15.0 15.0 15.0 15.0 15.0 15.0 15.0 15.0 15.0 15.0
13.5 14.7 15.0 15.0 15.0 15.0 15.0 15.0 15.0 15.0 15.0 15.0 14.0 12.2 12.1 13.0 12.4 10.6 15.0 14.7 2.4 0.0 0.1 15.0 15.0 15.0 15.0 15.0 13.8 15.0 15.0 15.0 15.0 1.5 10.5 2.0 0.1 0.0 7.1 15.0 15.0 15.0 15.0 15.0 15.0 15.0 15.0 15.0 15.0 15.0 15.0 15.0 15.0 15.0
15.0 15.0 15.0 15.0 15.0 15.0 15.0 15.0 15.0 15.0 15.0 15.0 15.0 15.0 7.9 10.8 8.5 10.0 15.0 15.0 15.0 0.1 0.2 12.6 15.0 15.0 15.0 15.0 15.0 12.5 15.0 15.0 0.5 0.1 0.2 10.2 8.3 0.3 6.4 4.8 15.0 15.0 15.0 15.0 15.0 15.0 15.0 15.0 15.0 15.0 15.0 15.0 15.0 15.0
15.0 15.0 15.0 15.0 15.0 15.0 15.0 15.0 15.0 15.0 15.0 15.0 15.0 15.0 4.4 15.0 4.1 0.6 7.8 15.0 15.0 15.0 0.1 0.3 15.0 15.0 15.0 15.0 15.0 15.0 15.0 15.0 15.0 7.5 11.5 15.0 15.0 6.7 0.3 0.1 4.7 15.0 15.0 14.5 8.8 15.0 15.0 15.0 15.0 15.0 15.0 15.0 15.0 15.0
15.0 15.0 15.0 15.0 15.0 14.2 13.3 15.0 15.0 15.0 15.0 14.5 13.6 13.0 13.0 14.4 3.7 0.3 15.0 15.0 15.0 9.1 0.0 0.6 14.8 15.0 15.0 15.0 14.1 15.0 15.0 15.0 15.0 15.0 15.0 15.0 15.0 10.9 4.6 3.5 11.0 15.0 15.0 14.9 15.0 15.0 15.0 15.0 15.0 15.0 15.0 15.0 15.0 15.0
15.0 15.0 15.0 15.0 10.6 13.0 8.8 12.9 13.6 15.0 6.8 15.0 15.0 11.4 7.0 7.1 4.7 0.1 15.0 15.0 15.0 10.9 0.1 0.1 14.1 15.0 14.9 8.6 15.0 15.0 15.0 13.9 13.9 15.0 15.0 15.0 15.0 15.0 0.5 15.0 15.0 15.0 15.0 15.0 15.0 15.0 15.0 15.0 15.0 13.4 15.0 15.0 15.0 15.0
15.0 15.0 15.0 15.0 15.0 15.0 14.6 10.7 11.5 11.8 15.0 15.0 10.5 11.0 10.8 0.0 0.0 1.1 15.0 14.7 15.0 14.8 4.4 0.2 4.1 15.0 15.0 15.0 14.8 5.7 10.0 12.7 14.1 15.0 15.0 14.2 15.0 12.4 15.0 15.0 15.0 15.0 15.0 15.0 15.0 15.0 15.0 15.0 15.0 15.0 15.0 15.0 15.0 15.0
15.0 15.0 15.0 15.0 15.0 15.0 14.1 10.5 11.9 6.7 12.8 14.4 0.0 0.0 0.0 0.4 15.0 15.0 15.0 9.0 0.1 3.4 0.1 6.4 15.0 15.0 15.0 11.6 3.7 1.5 7.2 15.0 15.0 15.0 15.0 15.0 15.0 15.0 15.0 15.0 15.0 15.0 15.0 15.0 15.0 15.0 15.0 15.0 15.0 15.0 15.0 4.8 8.7 15.0
15.0 15.0 15.0 15.0 15.0 11.8 12.3 12.7 7.1 7.3 4.0 0.0 0.5 0.2 0.4 9.0 12.8 13.0 7.4 1.3 2.2 0.4 1.1 7.9 15.0 15.0 15.0 14.2 15.0 0.5 0.1 13.5 15.0 15.0 15.0 12.6 15.0 15.0 15.0 15.0 15.0 15.0 15.0 15.0 15.0 15.0 15.0 15.0 15.0 15.0 15.0 15.0 15.0 15.0
15.0 15.0 15.0 15.0 15.0 15.0 8.9 4.3 10.0 5.2 0.0 8.9 4.4 0.0 0.0 0.4 0.5 13.0 2.5 9.2 7.7 13.7 15.0 15.0 14.4 15.0 15.0 15.0 15.0 1.1 0.1 3.3 14.5 14.5 12.8 15.0 15.0 15.0 15.0 15.0 15.0 15.0 15.0 15.0 15.0 15.0 15.0 15.0 15.0 15.0 15.0 15.0 15.0 15.0
15.0 15.0 15.0 14.9 14.5 14.1 5.2 9.6 4.7 11.1 3.0 0.4 0.3 0.3 12.2 13.6 0.6 0.5 2.5 15.0 7.4 15.0 15.0 15.0 15.0 15.0 15.0 15.0 13.3 15.0 6.4 8.4 15.0 15.0 15.0 15.0 15.0 15.0 15.0 15.0 15.0 15.0 15.0 15.0 15.0 15.0 15.0 15.0 15.0 15.0 15.0 15.0 15.0 15.0
14.2 15.0 15.0 10.4 14.8 15.0 5.8 13.8 0.2 10.5 15.0 7.5 1.8 0.1 1.3 2.9 0.4 15.0 15.0 15.0 15.0 15.0 15.0 15.0 2.5 3.4 14.5 15.0 15.0 15.0 15.0 15.0 15.0 15.0 15.0 15.0 15.0 15.0 15.0 15.0 15.0 15.0 15.0 15.0 15.0 15.0 15.0 15.0 15.0 15.0 15.0 15.0 15.0 15.0
15.0 15.0 15.0 15.0 15.0 15.0 15.0 7.2 7.4 15.0 15.0 5.9 1.4 0.2 10.7 15.0 15.0 15.0 15.0 15.0 15.0 15.0 15.0 15.0 10.1 2.6 1.3 12.9 15.0 15.0 15.0 15.0 15.0 15.0 15.0 15.0 15.0 15.0 15.0 15.0 15.0 15.0 15.0 15.0 15.0 15.0 15.0 15.0 15.0 15.0 15.0 15.0 15.0 15.0
15.0 9.3 5.6 14.3 15.0 15.0 15.0 7.9 15.0 15.0 15.0 15.0 0.7 6.3 15.0 15.0 15.0 15.0 15.0 15.0 15.0 15.0 13.8 15.0 6.5 0.1 8.9 15.0 15.0 15.0 15.0 15.0 15.0 15.0 15.0 15.0 15.0 15.0 15.0 15.0 15.0 15.0 15.0 15.0 15.0 15.0 15.0 15.0 15.0 15.0 15.0 15.0 15.0 15.0
15.0 0.0 6.3 15.0 15.0 6.9 14.7 15.0 15.0 15.0 15.0 14.9 15.0 15.0 15.0 15.0 15.0 15.0 15.0 15.0 15.0 9.0 14.9 14.8 5.0 14.0 15.0 15.0 15.0 15.0 15.0 15.0 15.0 15.0 15.0 15.0 15.0 15.0 15.0 15.0 15.0 15.0 15.0 15.0 15.0 15.0 15.0 15.0 15.0 15.0 15.0 15.0 15.0 15.0
15.0 15.0 9.6 11.4 15.0 15.0 15.0 15.0 15.0 9.6 1.9 15.0 15.0 15.0 15.0 15.0 15.0 15.0 15.0 13.7 15.0 15.0 15.0 15.0 12.8 15.0 15.0 15.0 15.0 15.0 15.0 15.0 15.0 15.0 15.0 15.0 15.0 15.0 15.0 15.0 15.0 15.0 15.0 15.0 15.0 15.0 15.0 15.0 15.0 15.0 15.0 15.0 15.0 15.0
15.0 15.0 15.0 15.0 15.0 15.0 0.1 2.4 15.0 11.4 15.0 15.0 15.0 15.0 15.0 15.0 15.0 15.0 15.0 15.0 15.0 15.0 15.0 15.0 2.8 1.1 15.0 15.0 15.0 15.0 15.0 15.0 15.0 15.0 15.0 15.0 15.0 15.0 15.0 15.0 15.0 15.0 15.0 15.0 15.0 15.0 15.0 15.0 15.0 15.0 15.0 15.0 15.0 15.0
15.0 15.0 15.0 15.0 15.0 1.7 0.0 7.8 15.0 15.0 15.0 15.0 15.0 15.0 15.0 15.0 15.0 15.0 15.0 15.0 15.0 15.0 15.0 15.0 15.0 15.0 15.0 15.0 15.0 15.0 15.0 15.0 15.0 15.0 15.0 15.0 15.0 15.0 15.0 15.0 15.0 15.0 15.0 15.0 15.0 15.0 15.0 15.0 15.0 15.0 15.0 15.0 15.0 15.0
15.0 15.0 15.0 15.0 15.0 15.0 14.8 15.0 15.0 15.0 15.0 15.0 15.0 15.0 15.0 15.0 15.0 15.0 15.0 15.0 15.0 15.0 15.0 15.0 15.0 15.0 15.0 15.0 15.0 15.0 15.0 15.0 15.0 15.0 15.0 15.0 15.0 15.0 15.0 15.0 15.0 15.0 15.0 15.0 15.0 15.0 15.0 15.0 15.0 15.0 15.0 15.0 15.0 15.0
15.0 15.0 15.0 14.6 15.0 15.0 15.0 15.0 15.0 15.0 15.0 15.0 15.0 15.0 14.9 15.0 15.0 15.0 15.0 13.0 11.4 15.0 15.0 15.0 15.0 15.0 15.0 15.0 15.0 15.0 15.0 15.0 15.0 15.0 15.0 15.0 15.0 15.0 15.0 15.0 15.0 14.5 13.2 11.2 0.5 0.1 2.8 3.9 0.0 0.0 7.6 15.0 15.0 15.0
15.0 15.0 15.0 15.0 7.5 7.7 13.2 15.0 15.0 15.0 0.6 13.6 15.0 9.8 15.0 8.3 13.5 5.8 0.1 1.1 2.0 15.0 15.0 15.0 15.0 15.0 15.0 15.0 15.0 15.0 15.0 15.0 15.0 15.0 15.0 15.0 15.0 15.0 6.8 0.1 0.0 0.1 0.2 2.3 0.2 0.1 0.1 0.2 0.1 0.0 0.0 0.0 0.0 0.0
15.0 15.0 15.0 4.8 0.1 0.5 7.8 6.7 14.8 7.7 1.2 0.4 1.1 1.4 0.1 0.1 0.1 0.1 0.2 0.3 0.1 0.8 6.7 15.0 15.0 15.0 15.0 15.0 15.0 15.0 2.9 15.0 15.0 14.0 0.2 0.1 0.1 0.1 0.1 0.2 0.1 0.1 0.1 0.1 0.1 0.2 0.2 0.1 0.0 0.0 0.0 0.0 0.1 0.0
0.4 1.3 0.5 3.6 15.0 0.3 5.1 10.5 15.0 1.6 0.5 15.0 15.0 15.0 0.6 7.6 6.7 5.3 0.1 0.1 0.1 0.2 5.6 14.8 15.0 13.3 1.7 8.6 0.1 14.3 14.1 5.8 0.0 7.7 0.6 2.6 2.1 1.0 0.5 0.4 3.5 0.5 0.0 0.2 0.1 0.1 0.1 0.1 0.1 0.1 0.1 0.1 0.1 0.1
0.4 10.4 2.2 15.0 6.7 9.3 14.2 8.8 15.0 15.0 15.0 15.0 15.0 15.0 15.0 9.3 0.3 1.6 1.6 1.2 4.8 5.9 3.3 0.7 0.2 5.5 2.0 0.2 0.1 1.1 0.9 0.1 14.4 12.8 2.2 5.0 4.0 3.4 4.8 8.9 10.6 4.0 0.2 0.1 0.1 0.1 0.1 0.1 0.1 0.1 0.2 0.1 0.1 1.0
3.3 15.0 7.1 15.0 12.3 14.8 15.0 9.8 15.0 15.0 11.4 15.0 15.0 15.0 6.1 1.0 3.9 5.5 2.1 7.9 4.4 12.6 8.3 5.4 0.2 3.1 11.5 3.4 4.1 5.9 2.9 1.1 3.2 1.7 1.3 3.3 4.8 6.7 7.0 4.1 3.7 0.2 0.1 0.7 0.6 0.3 0.2 0.2 0.2 0.1 0.2 0.2 0.1 0.1
13.3 15.0 8.2 14.6 15.0 13.7 15.0 12.1 5.0 15.0 15.0 15.0 15.0 15.0 15.0 9.6 11.7 9.9 14.9 15.0 14.8 15.0 12.7 4.8 1.2 2.6 8.1 0.7 1.9 0.7 1.2 4.6 13.9 15.0 14.6 13.5 7.0 3.7 3.6 0.9 0.2 0.8 5.6 11.9 4.3 5.0 2.3 1.0 0.5 0.3 0.5 0.3 0.1 0.1
0.7 9.6 10.5 0.3 2.2 14.4 15.0 15.0 15.0 15.0 15.0 15.0 15.0 15.0 10.1 7.0 11.1 5.9 9.6 15.0 15.0 14.8 0.5 6.4 1.5 6.9 0.6 2.0 3.6 0.8 0.6 4.8 14.9 15.0 5.1 3.3 4.1 0.8 2.0 4.8 3.3 4.0 3.8 3.6 6.7 8.8 9.2 5.9 6.5 3.5 1.4 0.3 0.1 0.2
12.3 15.0 15.0 3.3 2.1 9.0 15.0 11.5 7.3 10.1 15.0 12.0 12.6 15.0 15.0 14.3 4.4 5.6 15.0 15.0 8.9 9.8 0.4 7.1 5.0 0.4 2.7 9.3 1.8 1.1 0.6 0.7 5.4 15.0 13.6 5.4 1.3 1.1 2.3 4.8 4.8 5.4 14.5 9.0 5.1 2.8 8.7 8.3 15.0 15.0 15.0 3.9 0.4 1.0
15.0 15.0 8.2 13.9 7.0 7.9 11.9 4.3 8.3 11.5 15.0 15.0 7.5 6.8 5.2 5.3 11.6 5.2 9.6 11.4 11.3 0.6 0.3 3.8 3.6 0.2 0.2 1.9 1.5 2.1 1.5 0.5 4.4 9.0 14.1 12.9 4.9 4.1 4.1 4.1 4.1 4.2 14.7 15.0 14.9 9.2 10.4 5.5 7.3 4.2 2.2 0.4 0.1 0.2
15.0 14.5 8.1 0.7 0.3 0.9 7.4 4.0 12.7 4.1 4.1 0.7 4.1 14.2 4.0 8.4 11.7 5.7 5.7 15.0 7.4 2.7 14.5 15.0 1.6 0.3 1.3 4.4 4.3 4.2 15.0 9.8 4.1 7.9 13.6 4.1 4.1 4.1 4.1 4.1 7.6 15.0 15.0 15.0 15.0 15.0 15.0 11.0 5.7 4.3 2.3 1.5 1.5 1.6
4.8 6.4 4.2 0.4 0.5 1.0 0.7 7.2 4.5 5.8 12.7 9.2 9.8 8.3 15.0 14.7 10.6 8.3 9.4 13.2 12.9 14.7 15.0 2.3 2.3 1.6 6.4 10.8 4.5 3.0 4.1 4.1 4.2 13.0 4.1 4.1 4.1 4.1 4.1 4.1 7.9 15.0 15.0 15.0 13.8 15.0 11.0 8.3 4.0 3.8 3.8 3.2 2.2 2.3